[[{"header":{"parameterUnit":"m.s-1","parameterCategory":1,"la1":30.2991,"la2":30.254,"lo1":-89.0895,"lo2":-89.0444,"dy":0.0017,"dx":0.0017,"nx":28,"ny":28,"refTime":"2024-02-15T09:00:00:Z","depth":0,"parameterNumber":2,"parameterNumberName":"U-component_of_WINDS"},"data":[0,0,0,0,0,0,0,0,0,0,0,0,0,0,0,0,0,0,0,0,0,0,0,0,0,0,0,0,0,0,0,0,0,0,0,0,0,0,0,0,0,0,0,0,0,0,0,0,0,0,0,0,0,0,0,0,0,0,-1.2705,-1.2706,0,-1.2743,-1.2744,-1.2744,-1.2689,-1.2687,-1.2685,-1.2683,-1.2725,-1.2727,-1.273,0,0,0,0,0,0,0,0,0,0,0,0,0,-1.2589,-1.2592,-1.2705,-1.2706,-1.2706,-1.2743,-1.2744,-1.2744,-1.2689,-1.2687,-1.2685,-1.2682,-1.2724,-1.2727,-1.2731,0,0,0,0,0,0,0,0,0,0,0,0,0,-1.2635,-1.2592,-1.2705,-1.2683,-1.2682,-1.2743,-1.2744,-1.2744,-1.269,-1.2687,-1.2684,-1.2681,-1.2722,-1.2727,-1.2731,-1.2816,0,0,-1.2744,-1.2746,0,0,0,0,0,0,0,0,-1.2632,-1.2639,-1.2686,-1.2685,-1.2683,-1.2708,-1.2718,-1.2769,-1.2691,-1.2687,-1.2683,-1.268,-1.2722,-1.2726,-1.2739,-1.2818,-1.282,-1.2745,-1.2747,-1.2749,-1.275,0,0,0,0,0,0,0,-1.2629,-1.2637,-1.272,-1.2687,-1.2685,-1.2673,-1.2676,-1.2727,-1.272,-1.2687,-1.2683,-1.2688,-1.272,-1.2735,-1.274,-1.282,-1.2745,-1.2748,-1.2751,-1.2753,-1.2973,-1.2976,0,0,0,0,0,0,-1.2628,-1.2635,-1.2719,-1.2721,-1.265,-1.2677,-1.2681,-1.2703,-1.272,-1.2719,-1.2691,-1.2686,-1.2729,-1.2735,-1.2741,-1.2843,-1.2749,-1.2753,-1.2756,-1.297,-1.2973,-1.2977,0,0,0,0,0,0,-1.2626,-1.2636,-1.2718,-1.2677,-1.2686,-1.2682,-1.2708,-1.2706,-1.272,-1.2722,-1.2721,-1.2707,-1.2727,-1.2735,-1.2798,-1.2844,-1.2755,-1.2759,-1.2966,-1.2971,-1.2975,-1.3047,0,0,0,0,0,0,-1.2623,-1.2636,-1.2667,-1.2678,-1.2689,-1.2773,-1.2711,-1.2708,-1.2728,-1.2722,-1.2737,-1.2737,-1.2726,-1.2792,-1.2803,-1.2848,-1.2763,-1.2962,-1.2968,-1.2974,-1.304,-1.3053,-1.3064,0,0,0,0,0,-1.2619,-1.2686,-1.2669,-1.2679,-1.2728,-1.2776,-1.2782,-1.2767,-1.2732,-1.2764,-1.2765,-1.2737,-1.2837,-1.2799,-1.281,-1.2858,-1.2959,-1.2966,-1.2973,-1.3035,-1.3051,-1.3064,0,0,0,0,0,0,-1.2681,-1.2687,-1.2668,-1.2741,-1.2758,-1.2766,-1.2806,-1.2784,-1.2812,-1.2805,-1.2786,-1.279,-1.2857,-1.2864,-1.2821,-1.2942,-1.2892,-1.2902,-1.2935,-1.295,-1.2962,-1.2959,-1.2766,0,0,0,0,0,-1.2703,-1.274,-1.2744,-1.2807,-1.2817,-1.2811,-1.2831,-1.2817,-1.2835,-1.2842,-1.2848,-1.2867,-1.2903,-1.2927,-1.296,-1.3041,-1.3044,-1.308,-1.3092,-1.3102,-1.311,-1.3155,-1.3171,-1.3001,-1.3001,-1.3001,0,0,-1.2748,-1.2757,-1.2781,-1.282,-1.2832,-1.2872,-1.2817,-1.2861,-1.2892,-1.2849,-1.2909,-1.2914,-1.2934,-1.3007,-1.304,-1.3015,-1.3159,-1.3111,-1.3119,-1.3122,-1.3164,-1.3181,-1.3195,-1.3006,-1.3005,-1.3004,0,0,-1.2853,-1.2862,-1.2917,-1.293,-1.2949,-1.2944,-1.2957,-1.2969,-1.2971,-1.3031,-1.3,-1.3037,-1.3098,-1.3114,-1.313,-1.3243,-1.3218,-1.3254,-1.3318,-1.3362,-1.3375,-1.3387,-1.3428,-1.3443,-1.3263,-1.3263,-1.3263,0,-1.2907,-1.2966,-1.2948,-1.2995,-1.3013,-1.2977,-1.3033,-1.3047,-1.3076,-1.309,-1.3062,-1.314,-1.315,-1.3227,-1.3255,-1.3269,-1.3284,-1.3252,-1.3375,-1.3386,-1.3397,-1.3436,-1.3451,-1.3268,-1.3267,-1.3267,-1.3266,0,-1.3033,-1.3074,-1.3116,-1.3144,-1.3168,-1.3219,-1.321,-1.3236,-1.3222,-1.3221,-1.3283,-1.3295,-1.333,-1.3348,-1.3334,-1.3423,-1.3407,-1.3377,-1.3327,-1.3418,-1.3454,-1.3469,-1.3274,-1.3272,-1.3271,-1.327,0,0,-1.3176,-1.3194,-1.321,-1.3223,-1.3242,-1.3274,-1.3325,-1.3359,-1.3382,-1.3404,-1.3447,-1.3501,-1.3474,-1.3492,-1.348,-1.3519,-1.3608,-1.3484,-1.3484,-1.3507,-1.3709,-1.3731,-1.3749,-1.3592,-1.3595,-1.3597,-1.3707,0,-1.328,-1.3366,-1.3352,-1.3436,-1.3475,-1.3441,-1.3486,-1.3503,-1.3504,-1.3538,-1.3539,-1.3578,-1.3539,-1.355,-1.3587,-1.359,-1.3649,-1.3582,-1.3633,-1.3635,-1.3629,-1.3768,-1.3791,-1.3894,-1.3721,-1.3724,-1.3725,0,-1.3412,-1.3439,-1.3527,-1.3541,-1.3556,-1.3596,-1.3627,-1.366,-1.3679,-1.3678,-1.3699,-1.3681,-1.3733,-1.3682,-1.3754,-1.3709,-1.373,-1.3735,-1.3738,-1.3743,-1.3686,-1.3776,-1.3927,-1.3943,-1.3747,-1.3746,-1.3744,0,-1.3509,-1.3566,-1.3626,-1.3639,-1.3656,-1.3686,-1.3695,-1.3711,-1.3733,-1.3761,-1.3775,-1.3809,-1.3828,-1.3855,-1.3847,-1.381,-1.3922,-1.387,-1.3922,-1.3923,-1.3947,-1.3945,-1.4104,-1.396,-1.396,-1.396,-1.3959,0,-1.3626,-1.3681,-1.367,-1.3707,-1.3768,-1.3753,-1.3815,-1.382,-1.3835,-1.3874,-1.3848,-1.3885,-1.3871,-1.3908,-1.3903,-1.3964,-1.3973,-1.3974,-1.3971,-1.3976,-1.3976,-1.3989,-1.3982,-1.3964,-1.3963,-1.3962,-1.3961,0,-1.3743,-1.3738,-1.3801,-1.3813,-1.3818,-1.3863,-1.3874,-1.3909,-1.3909,-1.3958,-1.3969,-1.3968,-1.401,-1.4005,-1.4052,-1.4048,-1.4125,-1.4114,-1.4118,-1.4116,-1.4169,-1.4164,-1.4341,-1.4364,-1.4206,-1.4207,-1.4209,0,-1.3819,-1.386,-1.3877,-1.3901,-1.3912,-1.395,-1.3973,-1.396,-1.3984,-1.4011,-1.4044,-1.4084,-1.4115,-1.4184,-1.4189,-1.4225,-1.4215,-1.4275,-1.422,-1.4224,-1.4217,-1.4214,-1.4219,-1.4285,-1.4287,-1.4289,-1.429,0,-1.3953,-1.3949,-1.3981,-1.4014,-1.4042,-1.4067,-1.409,-1.4111,-1.41,-1.413,-1.4172,-1.4196,-1.4245,-1.4285,-1.432,-1.4331,-1.431,-1.4307,-1.4321,-1.4326,-1.4327,-1.4328,-1.4148,-1.4303,-1.4301,-1.4301,-1.43,-1.4299,-1.4052,-1.4088,-1.4106,-1.4144,-1.4159,-1.4182,-1.4216,-1.422,-1.4255,-1.4293,-1.4284,-1.4332,-1.4353,-1.4397,-1.4412,-1.4451,-1.4429,-1.4449,-1.4455,-1.446,-1.4466,-1.4321,-1.4457,-1.4457,-1.4456,-1.4456,-1.4456,0,-1.4186,-1.4196,-1.4231,-1.4263,-1.4294,-1.4271,-1.4295,-1.4322,-1.4365,-1.4386,-1.4417,-1.4467,-1.4506,-1.4515,-1.4553,-1.4583,-1.4574,-1.4593,-1.4591,-1.4594,-1.4483,-1.4467,-1.46,-1.46,-1.46,-1.46,-1.46,-1.46,-1.4258,-1.4318,-1.4317,-1.4385,-1.4395,-1.4441,-1.4458,-1.4479,-1.4495,-1.4552,-1.4584,-1.4589,-1.4606,-1.4645,-1.4681,-1.4683,-1.4698,-1.4722,-1.472,-1.4616,-1.4602,-1.4588,-1.4573,-1.4725,-1.4725,-1.4827,-1.4828,-1.4829]},{"header":{"parameterUnit":"m.s-1","parameterCategory":1,"la1":30.2991,"la2":30.254,"lo1":-89.0895,"lo2":-89.0444,"dy":0.0017,"dx":0.0017,"nx":28,"ny":28,"refTime":"2024-02-15T09:00:00:Z","depth":0,"parameterNumber":3,"parameterNumberName":"V-component_of_WINDS"},"data":[0,0,0,0,0,0,0,0,0,0,0,0,0,0,0,0,0,0,0,0,0,0,0,0,0,0,0,0,0,0,0,0,0,0,0,0,0,0,0,0,0,0,0,0,0,0,0,0,0,0,0,0,0,0,0,0,0,0,0.8024,0.8024,0,0.8012,0.8012,0.8012,0.8035,0.8036,0.8037,0.8037,0.8024,0.8023,0.8022,0,0,0,0,0,0,0,0,0,0,0,0,0,0.8065,0.8064,0.8024,0.8024,0.8024,0.8013,0.8012,0.8012,0.8035,0.8036,0.8037,0.8038,0.8024,0.8023,0.8022,0,0,0,0,0,0,0,0,0,0,0,0,0,0.8049,0.8063,0.8024,0.8034,0.8034,0.8013,0.8012,0.8012,0.8035,0.8036,0.8037,0.8038,0.8024,0.8023,0.8021,0.7989,0,0,0.8016,0.8016,0,0,0,0,0,0,0,0,0.805,0.8048,0.8032,0.8033,0.8034,0.8026,0.8022,0.8004,0.8034,0.8035,0.8037,0.8039,0.8024,0.8022,0.8017,0.7988,0.7988,0.8016,0.8015,0.8015,0.8014,0,0,0,0,0,0,0,0.8051,0.8048,0.8019,0.8032,0.8033,0.8038,0.8037,0.8019,0.8023,0.8035,0.8036,0.8035,0.8024,0.8019,0.8017,0.7987,0.8016,0.8015,0.8014,0.8013,0.7931,0.793,0,0,0,0,0,0,0.8051,0.8049,0.802,0.8019,0.8045,0.8037,0.8036,0.8028,0.8023,0.8024,0.8034,0.8036,0.8021,0.8019,0.8017,0.7978,0.8015,0.8013,0.8012,0.7932,0.7931,0.7929,0,0,0,0,0,0,0.8052,0.8048,0.802,0.8035,0.8031,0.8035,0.8026,0.8027,0.8022,0.8022,0.8023,0.8028,0.8022,0.8019,0.7996,0.7978,0.8012,0.8011,0.7934,0.7932,0.793,0.79,0,0,0,0,0,0,0.8053,0.8049,0.8036,0.8034,0.8031,0.7999,0.8024,0.8026,0.8019,0.8021,0.8017,0.8017,0.8023,0.7998,0.7994,0.7976,0.801,0.7935,0.7933,0.7931,0.7903,0.7898,0.7893,0,0,0,0,0,0.8054,0.8028,0.8036,0.8032,0.8015,0.7998,0.7996,0.8003,0.8017,0.8005,0.8006,0.8017,0.7981,0.7995,0.7991,0.7973,0.7936,0.7934,0.7931,0.7905,0.7899,0.7893,0,0,0,0,0,0,0.8027,0.8028,0.8036,0.8008,0.8003,0.8002,0.7987,0.7997,0.7987,0.7989,0.7999,0.7997,0.7972,0.797,0.7986,0.7941,0.7961,0.7957,0.7943,0.7937,0.7932,0.7932,0.8008,0,0,0,0,0,0.8018,0.8005,0.8006,0.7981,0.7978,0.7983,0.7976,0.7982,0.7977,0.7974,0.7973,0.7967,0.7955,0.7946,0.7934,0.7903,0.7902,0.7889,0.7884,0.788,0.7876,0.7859,0.7853,0.792,0.792,0.792,0,0,0.7999,0.7997,0.7988,0.7976,0.7972,0.7957,0.7981,0.7964,0.7953,0.7972,0.7949,0.7949,0.7943,0.7915,0.7903,0.7913,0.7857,0.7876,0.7873,0.7871,0.7855,0.7849,0.7843,0.7918,0.7919,0.7919,0,0,0.7955,0.7954,0.7933,0.7929,0.7924,0.7928,0.7923,0.7921,0.7921,0.7899,0.7913,0.79,0.7878,0.7873,0.7867,0.7824,0.7834,0.782,0.7794,0.7777,0.7772,0.7767,0.7751,0.7745,0.7817,0.7816,0.7816,0,0.7932,0.791,0.792,0.7903,0.7897,0.7914,0.7893,0.7889,0.788,0.7875,0.7887,0.786,0.7857,0.7829,0.7818,0.7814,0.7808,0.7819,0.7772,0.7768,0.7763,0.7747,0.7741,0.7815,0.7815,0.7815,0.7815,0,0.7881,0.7866,0.785,0.7841,0.7834,0.7814,0.7821,0.7812,0.782,0.7822,0.7799,0.7797,0.7785,0.7779,0.7786,0.7752,0.7758,0.7771,0.7791,0.7755,0.774,0.7734,0.7812,0.7813,0.7813,0.7814,0,0,0.7818,0.7817,0.781,0.7807,0.7803,0.7792,0.7774,0.7763,0.7754,0.7748,0.7732,0.7714,0.7726,0.772,0.7727,0.7713,0.7677,0.7727,0.7727,0.7717,0.7638,0.7627,0.762,0.7685,0.7684,0.7683,0.7638,0,0.7774,0.7743,0.7752,0.772,0.7706,0.7723,0.7707,0.7703,0.7705,0.7693,0.7696,0.7682,0.77,0.7696,0.7683,0.7684,0.7661,0.7688,0.7669,0.7668,0.7668,0.7612,0.7601,0.7558,0.7633,0.7632,0.7631,0,0.7718,0.7711,0.7677,0.7677,0.7671,0.7656,0.7647,0.7636,0.7632,0.7635,0.7629,0.7639,0.762,0.7642,0.7616,0.7634,0.7627,0.7627,0.7626,0.7622,0.7646,0.7606,0.7545,0.7538,0.7622,0.7623,0.7624,0,0.7674,0.7656,0.7633,0.763,0.7629,0.7618,0.7617,0.7614,0.7607,0.7599,0.7595,0.7585,0.7579,0.7571,0.7578,0.7593,0.7551,0.7573,0.7551,0.7551,0.754,0.754,0.7475,0.7538,0.7538,0.7539,0.7539,0,0.7623,0.7602,0.7613,0.7599,0.7576,0.7587,0.7564,0.7565,0.7562,0.7549,0.7564,0.755,0.7561,0.7549,0.7554,0.7531,0.7529,0.753,0.7531,0.7528,0.7527,0.7522,0.7524,0.7537,0.7537,0.7538,0.7538,0,0.7569,0.7576,0.7552,0.7554,0.7554,0.7536,0.7537,0.7524,0.7528,0.7511,0.7507,0.7513,0.7499,0.7506,0.7492,0.7495,0.7466,0.7472,0.7467,0.7468,0.7445,0.7447,0.7373,0.7363,0.7435,0.7434,0.7433,0,0.7535,0.7519,0.7519,0.7511,0.7509,0.7496,0.7489,0.75,0.7492,0.7487,0.7474,0.7463,0.7453,0.743,0.7433,0.7422,0.7427,0.7402,0.7425,0.7422,0.7425,0.7425,0.7423,0.7397,0.7396,0.7395,0.7395,0,0.7473,0.7478,0.7467,0.7458,0.745,0.7443,0.7438,0.7431,0.7442,0.7432,0.7419,0.7412,0.7397,0.7385,0.7376,0.7374,0.7386,0.7388,0.7382,0.7377,0.7374,0.7374,0.7452,0.7389,0.7389,0.739,0.739,0.739,0.7427,0.7413,0.7411,0.7399,0.7397,0.7392,0.7379,0.7382,0.7371,0.7361,0.7368,0.7352,0.7349,0.7338,0.7336,0.7323,0.7333,0.7324,0.7322,0.7319,0.7316,0.7378,0.7321,0.7322,0.7322,0.7322,0.7322,0,0.7365,0.7365,0.7354,0.7346,0.7337,0.735,0.7345,0.7336,0.7322,0.7318,0.7309,0.7294,0.7282,0.7284,0.7274,0.7263,0.7268,0.726,0.7259,0.7259,0.7308,0.7314,0.7256,0.7256,0.7256,0.7256,0.7256,0.7256,0.7331,0.7309,0.7313,0.729,0.729,0.7275,0.7271,0.7266,0.7263,0.7245,0.7236,0.7238,0.7237,0.7226,0.7216,0.7217,0.7212,0.7201,0.7204,0.7249,0.7255,0.7262,0.7267,0.72,0.72,0.7155,0.7155,0.7154]}]]